TimeEDT,TemperatureF,Dew PointF,Humidity,Sea Level PressureIn,VisibilityMPH,Wind Direction,Wind SpeedMPH,Gust SpeedMPH,PrecipitationIn,Events,Conditions,WindDirDegrees,DateUTC
12:53 AM,64.9,48.9,56,29.65,10.0,South,10.4,23.0,N/A,,Overcast,190,2012-10-15 04:53:00
1:53 AM,64.9,48.9,56,29.63,10.0,South,10.4,19.6,N/A,,Mostly Cloudy,190,2012-10-15 05:53:00
2:53 AM,66.0,50.0,56,29.60,10.0,South,11.5,23.0,N/A,,Overcast,190,2012-10-15 06:53:00
3:53 AM,61.0,53.1,75,29.61,6.0,SW,11.5,24.2,0.01,Rain,Light Rain,230,2012-10-15 07:53:00
4:53 AM,59.0,55.0,87,29.60,10.0,Variable,3.5,-,0.02,Rain,Light Rain,0,2012-10-15 08:53:00
5:08 AM,59.0,55.0,87,29.64,2.0,SSW,8.1,-,0.07,Rain,Heavy Rain,210,2012-10-15 09:08:00
5:13 AM,59.0,55.0,87,29.64,3.0,WSW,9.2,-,0.07,Rain,Light Rain,240,2012-10-15 09:13:00
5:53 AM,57.9,53.1,84,29.61,5.0,SW,8.1,-,0.11,Rain,Light Rain,230,2012-10-15 09:53:00
6:31 AM,57.0,53.1,87,29.65,10.0,SW,8.1,-,0.02,,Overcast,220,2012-10-15 10:31:00
6:53 AM,57.0,53.1,87,29.63,10.0,SSW,8.1,-,0.02,,Overcast,200,2012-10-15 10:53:00
6:59 AM,57.0,53.1,87,29.67,10.0,Variable,6.9,-,N/A,,Overcast,0,2012-10-15 10:59:00
7:06 AM,57.0,52.0,83,29.67,10.0,West,10.4,18.4,N/A,,Overcast,270,2012-10-15 11:06:00
7:17 AM,55.9,50.0,80,29.68,10.0,West,9.2,20.7,N/A,,Overcast,260,2012-10-15 11:17:00
7:36 AM,54.0,46.9,77,29.69,10.0,WSW,11.5,25.3,N/A,,Overcast,250,2012-10-15 11:36:00
7:53 AM,53.1,46.0,77,29.68,10.0,WSW,11.5,23.0,N/A,,Overcast,250,2012-10-15 11:53:00
8:50 AM,51.8,44.6,76,29.73,10.0,West,12.7,25.3,N/A,,Overcast,270,2012-10-15 12:50:00
8:53 AM,51.1,45.0,80,29.71,10.0,West,11.5,25.3,N/A,,Overcast,260,2012-10-15 12:53:00
9:34 AM,51.1,43.0,74,29.73,10.0,WSW,9.2,-,N/A,,Overcast,250,2012-10-15 13:34:00
9:53 AM,51.1,43.0,74,29.71,10.0,West,12.7,19.6,N/A,,Overcast,260,2012-10-15 13:53:00
10:53 AM,51.1,42.1,71,29.72,10.0,SW,12.7,19.6,N/A,,Overcast,230,2012-10-15 14:53:00
11:49 AM,53.6,41.0,62,29.75,10.0,WSW,12.7,19.6,N/A,,Overcast,240,2012-10-15 15:49:00
11:53 AM,52.0,41.0,66,29.72,10.0,WSW,10.4,19.6,N/A,,Overcast,240,2012-10-15 15:53:00
12:11 PM,53.1,41.0,64,29.74,10.0,SW,10.4,17.3,N/A,,Overcast,230,2012-10-15 16:11:00
12:53 PM,55.0,42.1,62,29.70,10.0,Variable,5.8,16.1,N/A,,Mostly Cloudy,0,2012-10-15 16:53:00
1:53 PM,55.9,39.0,53,29.68,10.0,West,12.7,23.0,N/A,,Mostly Cloudy,260,2012-10-15 17:53:00
2:53 PM,54.0,39.0,57,29.68,10.0,West,15.0,25.3,N/A,,Overcast,280,2012-10-15 18:53:00
3:53 PM,54.0,39.9,59,29.70,10.0,WSW,9.2,26.5,N/A,,Mostly Cloudy,250,2012-10-15 19:53:00
4:31 PM,48.9,43.0,80,29.74,4.0,West,15.0,26.5,0.02,Rain,Rain,280,2012-10-15 20:31:00
4:53 PM,48.9,43.0,80,29.73,9.0,West,11.5,19.6,0.03,Rain,Light Rain,280,2012-10-15 20:53:00
5:02 PM,48.0,43.0,83,29.74,5.0,WNW,16.1,24.2,0.00,Rain,Light Rain,300,2012-10-15 21:02:00
5:53 PM,48.0,42.1,80,29.75,10.0,West,15.0,21.9,0.00,,Overcast,280,2012-10-15 21:53:00
6:26 PM,46.9,42.1,83,29.76,10.0,West,11.5,-,N/A,,Mostly Cloudy,270,2012-10-15 22:26:00
6:46 PM,46.9,42.1,83,29.76,10.0,WNW,11.5,-,N/A,,Overcast,290,2012-10-15 22:46:00
6:53 PM,46.9,41.0,80,29.76,10.0,West,6.9,-,N/A,,Overcast,280,2012-10-15 22:53:00
7:53 PM,46.9,39.9,77,29.78,10.0,West,12.7,-,N/A,,Overcast,280,2012-10-15 23:53:00
8:38 PM,45.0,41.0,86,29.78,10.0,WNW,11.5,-,0.00,,Overcast,290,2012-10-16 00:38:00
8:53 PM,45.0,41.0,86,29.80,8.0,West,12.7,-,0.01,Rain,Light Rain,280,2012-10-16 00:53:00
8:58 PM,45.0,41.0,86,29.79,8.0,West,12.7,-,0.00,Rain,Light Rain,270,2012-10-16 00:58:00
9:37 PM,45.0,39.9,82,29.80,10.0,West,12.7,-,0.00,,Overcast,280,2012-10-16 01:37:00
9:53 PM,45.0,39.0,80,29.81,10.0,WNW,11.5,25.3,0.00,,Overcast,290,2012-10-16 01:53:00
10:10 PM,44.1,39.0,82,29.81,8.0,WNW,13.8,-,0.00,Rain,Light Rain,290,2012-10-16 02:10:00
10:34 PM,44.1,39.0,82,29.81,10.0,WNW,12.7,20.7,0.00,,Overcast,300,2012-10-16 02:34:00
10:53 PM,44.1,39.0,82,29.82,10.0,WNW,10.4,-,0.00,,Overcast,300,2012-10-16 02:53:00
11:25 PM,44.1,37.9,79,29.82,10.0,NW,9.2,-,N/A,,Overcast,310,2012-10-16 03:25:00
11:39 PM,44.1,37.9,79,29.82,10.0,NW,12.7,-,N/A,,Overcast,310,2012-10-16 03:39:00
11:53 PM,43.0,37.9,82,29.83,10.0,WNW,12.7,18.4,N/A,,Overcast,300,2012-10-16 03:53:00